www.pogodaiklimat.ru

Погода и климат >> Архив погоды >> Пакистан >> Nawabshah


ПОГОДА в Nawabshah

  • Прогноз погоды в Nawabshah
  • Монитор погоды в Nawabshah
  • Климат города

АРХИВ ПОГОДЫ в Nawabshah

Время (UTC), дата Ветер
(напр.,м/с)
 
Видим.   Явления Облачность Т
(С)
Тd
(С)
f
(%)
Тe
(С)
Тes
(С)
Комфортность P
(гПа)
Po
(гПа)
Тmin
(С)
Tmax
(С)
R
(мм)
R24
(мм)
S
(см)
00 12.12 С 2 1000 м дымка ясно +10.0 +7.9 87 +8 +8 1016.0 1012.4
03 12.12 СЗ 2 1000 м дымка ясно +12.0 +9.0 82 +11 +12 1018.9 1015.3 +9.5
06 12.12 С 1 2000 м дым ясно +19.0 +10.1 56 +21 +30 комфорт 1021.5 1018.1
09 12.12 С 1 4000 м дым ясно +23.0 +10.4 45 +25 +34 комфорт 1018.1 1000.0
12 12.12 СЗ 1 4000 м дым ясно +23.0 +11.5 48 +25 +26 комфорт 1017.1 1013.7 +24.5
15 12.12 З 1 2000 м дым ясно +17.5 +10.0 61 +19 +19 1019.1 1000.0
18 12.12 штиль 0 2000 м дым ясно +14.5 +9.7 73 +14 +14 1021.6 995.1
21 12.12 СЗ 1 2000 м дым ясно +13.0 +9.1 77 +13 +13 1020.7 1000.0
00 13.12 штиль 0 1000 м дымка ясно +11.0 +9.0 87 +10 +10 1019.0 1015.7
03 13.12 СВ 1 1000 м дымка ясно +12.0 +9.0 82 +12 +12 1021.9 1018.3 +10.1
06 13.12 СВ 1 2000 м дым ясно +19.0 +11.8 63 +21 +30 комфорт 1025.0 1021.6
09 13.12 СВ 1 4000 м дым ясно +23.5 +11.1 46 +25 +34 комфорт 1021.4 1000.0
12 13.12 С 1 4000 м дым ясно +23.0 +10.4 45 +25 +25 комфорт 1019.3 1015.9 +25.1
15 13.12 СЗ 1 2000 м дым ясно +17.0 +11.5 70 +18 +18 1021.6 1000.0
18 13.12 СЗ 1 2000 м дым ясно +13.5 +8.5 72 +14 +14 1023.7 994.5
21 13.12 штиль 0 1000 м дымка ясно +11.5 +8.5 82 +11 +11 1022.3 1000.0
00 14.12 штиль 0 1000 м дымка ясно +10.0 +7.9 87 +9 +9 1020.7 1017.1
03 14.12 СЗ 1 1000 м дымка ясно +10.0 +6.8 80 +10 +10 1023.4 1019.8 +8.5
06 14.12 СЗ 1 2000 м дым ясно +18.0 +8.3 53 +19 +28 1026.5 1023.0
09 14.12 СЗ 2 4000 м дым ясно +23.5 +7.3 35 +24 +32 комфорт 1023.7 1000.0
12 14.12 СЗ 2 4000 м дым ясно +23.0 +7.9 38 +24 +24 комфорт 1021.9 1018.5 +24.5
15 14.12 СЗ 1 4000 м дым ясно +17.0 +9.4 61 +18 +18 1023.1 1000.0
18 14.12 СЗ 1 2000 м дым ясно +15.0 +9.2 68 +16 +16 1024.5 993.8
21 14.12 штиль 0 2000 м дым ясно +12.0 +7.9 76 +12 +12 1023.4 1000.0
00 15.12 штиль 0 2000 м дымка ясно +9.0 +6.9 87 +8 +8 1022.4 1018.8
03 15.12 С 1 1000 м дымка ясно +10.0 +6.8 80 +10 +10 1024.4 1020.7 +8.5
06 15.12 СВ 3 4000 м дым ясно +19.0 +8.5 51 +20 +26 1026.2 1022.7
09 15.12 СВ 2 4000 м дым ясно +23.0 +6.6 35 +24 +32 комфорт 1023.6 1000.0
12 15.12 С 2 4000 м дым ясно +22.5 +5.6 33 +23 +23 комфорт 1021.2 1017.8 +23.5
15 15.12 С 2 2000 м дым ясно +16.0 +8.1 59 +16 +16 1022.4 1000.0
18 15.12 С 2 2000 м дым ясно +13.5 +7.4 67 +13 +13 1023.5 994.0
21 15.12 С 1 2000 м дым ясно +11.0 +6.8 75 +11 +11 1022.6 1000.0
00 16.12 С 1 2000 м дымка ясно +9.0 +5.7 80 +8 +8 1021.5 1017.9
03 16.12 С 1 1000 м дымка ясно +9.5 +6.3 80 +9 +10 1024.9 1021.2 +8.1
06 16.12 С 2 4000 м дым ясно +19.0 +7.2 46 +20 +28 1027.4 1023.9
09 16.12 С 2 4000 м дым ясно +23.0 +5.1 31 +23 +31 комфорт 1023.8 1000.0
12 16.12 С 2 4000 м дым ясно +22.0 +6.4 36 +23 +23 комфорт 1020.5 1017.0 +23.5
15 16.12 С 1 4000 м дым ясно +17.0 +8.2 56 +18 +18 1022.6 1000.0
18 16.12 С 1 2000 м дым ясно +13.5 +7.4 67 +14 +14 1024.0 994.0
21 16.12 штиль 0 2000 м дым ясно +11.0 +6.8 75 +10 +10 1023.1 1000.0
00 17.12 штиль 0 2000 м дымка ясно +9.0 +5.7 80 +8 +8 1022.2 1018.7
03 17.12 С 1 1000 м дым ясно +10.5 +6.2 75 +10 +11 1023.8 1020.3 +8.1
06 17.12 С 2 2000 м дым ясно +18.0 +8.3 53 +19 +27 1025.1 1021.5
09 17.12 С 3 4000 м дым ясно +22.5 +7.1 37 +23 +29 комфорт 1021.8 1022.0
12 17.12 С 4 4000 м дым ясно +23.0 +7.9 38 +24 +24 комфорт 1018.1 1015.1 +24.5
15 17.12 СЗ 1 4000 м дым ясно +18.0 +9.5 58 +19 +19 1020.3 1000.0
18 17.12 С 1 4000 м дым ясно +14.0 +9.1 72 +14 +14 1022.2 997.5
21 17.12 С 1 2000 м дымка ясно +11.0 +7.9 81 +11 +11 1021.3 1000.0
00 18.12 0 н/о +7.7 0.0 58 +7 +7 1021.7 1000.0
03 18.12 штиль 0 1000 м дым ясно +8.5 +5.2 80 +8 +8 1022.8 1019.2 +7.1
06 18.12 СВ 1 4000 м дым ясно +18.0 +4.4 41 +19 +28 1023.7 1020.1
09 18.12 СВ 1 4000 м дым ясно +23.0 +3.5 28 +23 +31 комфорт 1020.5 1000.0
12 18.12 ЮЗ 1 4000 м дым ясно +25.0 +4.0 26 +24 +25 комфорт 1017.6 1014.3 +25.5
15 18.12 штиль 0 4000 м дым ясно +19.0 +7.2 46 +19 +19 1019.1 1000.0
18 18.12 ЮВ 1 2000 м дым ясно +12.0 +6.8 70 +12 +12 1020.2 1016.6
21 18.12 штиль 0 2000 м дымка ясно +9.0 +5.7 80 +8 +8 1019.3 1000.0

 

Местоположение метеостанции Nawabshah (Пакистан): широта 26.25 долгота 68.37 высота над уровнем моря 38 м.

В архиве по умолчанию представлена погода в Nawabshah за последнюю неделю. Архивные данные за месяц целиком и за предыдущие месяцы, начиная с января 2011 года, Вы можете получить, выбрав интересующий диапазон дат из раскрывающегося списка и нажав кнопку "Ввод!".


*Определитесь, кто Вы:
робот инопланетянин человек

Внимание! Время в таблицах - всемирное. Для получения местного времени необходимо прибавить поправку, которая в Nawabshah равна 5 ч.

Смотрите также архив погоды в соседних городах и на ближайших метеорологических станциях:

Погода в Pad Idan (Пакистан) (71 км)
Погода в Hyderabad (Пакистан) (97 км)
Погода в Sakrand (Пакистан) (125 км)
Погода в Chhor (Пакистан) (163 км)
Погода в Rohri (Пакистан) (166 км)
Погода в Badin (Пакистан) (188 км)
Погода в Karachi (Пакистан) (195 км)
Погода в Jacobabad (Пакистан) (228 км)
Погода в Khuzdar (Пакистан) (246 км)
Погода в Jaisalmer (Rajasthan, Индия) (264 км)

Пояснения к столбцам:

Ветер - указаны скорость ветра в м/с - средняя за 10 мин, порывы в срок и между сроками (в фигурных скобках) и направление, откуда дует ветер: С - северный, СВ - северо-восточный, В - восточный, ЮВ - юго-восточный, Ю - южный, ЮЗ - юго-западный, З - западный, СЗ - северо-западный.
Видимость - горизонтальная дальность видимости в метрах или километрах. При видимости от 1 до 10 км при отсутствии осадков обычно наблюдается дымка, при ухудшении видимости до 1 км и менее - туман. В сухую погоду видимость может ухудшаться дымом, пылью или мглою.
Явления - указаны атмосферные явления, наблюдавшиеся в срок или в последний час перед сроком; фигурными скобками обозначены явления, наблюдавшиеся между сроками (за 1-3 часа до срока); квадратными скобками обозначены град или гололедные отложения с указанием их диаметра в мм.
Облачность - указаны через наклонную черту общая и нижняя облачность в баллах и высота нижней границы облаков в метрах; квадратными скобками обозначены формы облаков: Ci - перистые, Cs - перисто-слоистые, Cc - перисто-кучевые, Ac - высококучевые, As - высокослоистые, Sc - слоисто-кучевые, Ns - слоисто-дождевые, Cu - кучевые, Cb - кучево-дождевые. Подробнее классификацию облаков см. в Атласе облаков (PDF).
T - Температура воздуха - температура, измеренная на высоте 2 м над землей.
Td - Температура точки росы - температура, при понижении до которой содержащийся в воздухе водяной пар достигнет насыщения.
f - Относительная влажность воздуха - влажноcть воздуха, измеренная на высоте 2 м над землей.
Te - Эффективная температура - температура, которую ощущает одетый по сезону человек в тени. Характеристика душности погоды. При расчете учитывается влияние влажности воздуха и скорости ветра на теплоощущения человека.
Tes - Эффективная температура на солнце - температура, которую ощущает человек, с поправкой на солнечный нагрев. Характеристика знойности погоды. Зависит от высоты солнца над горизонтом, облачности и скорости ветра. Ночью, в пасмурную погоду, а также при ветре 12 м/с и более поправка равна нулю.
P - Атмосферное давление - приведенное к уровню моря атмосферное давление.
Po - Атмосферное давление - измеренное на уровне метеостанции атмосферное давление.
Tmin - Минимальная температура - минимум температуры воздуха на высоте 2 м над землей.
Tmax - Максимальная температура - максимум температуры воздуха на высоте 2 м над землей.
R - Количество осадков - Количество выпавших осадков за период времени, мм. При наведении курсора мыши на число - период времени, за который выпало указанное количество осадков.
R24 - Количество осадков - Количество выпавших осадков за 24 часа, мм.
S - Снежный покров - Высота снежного покрова, см. При наведении курсора мыши на число - состояние снежного покрова и степень покрытия местности в баллах.